STARLINK-32469, 61721

Orbit data source: Space-Track

STARLINK-32469, 61721 is a payload satellite owned by SpaceX/Seattle (US) in LEO that was launched on Wed, 30 Oct 2024 UTC via an FALCON 9 launch vehicle from the Air Force Eastern Test Range (AFETR). Payload-class satellites include a variety of spacecraft equipped with specific instruments for various scientific and technological missions. These include communications satellites like Starlink; space stations such as the ISS; scientific satellites like the Hubble; Earth observation satellites from companies like Planet Labs, Umbra, and HawkEye 360; GPS; miniature CubeSats for education and research; and military/defense satellites.

Loading next visibility...
Identifier
61721, 2024-196Q
Orbit
LEO
Country
Flag of USUS
Related business
Manufacturer
SpaceX/Seattle
Mission
Operational Commercial Communications
Bus & Motor
STARLINK V2M, Unknown motor
Mass
730 kg wet, ~700 kg dry
Launch date (UTC)
2024-10-30 (1 year ago)
Launch vehicle
FALCON 9
Launch site
Air Force Eastern Test Range (AFETR)
Object type
Payload
Rocket body
Debris
Shape & HBR
Box + 2 Pan, 17.7 m
Radar Cross Section
33.884 m², Large (>1 m²)

Expand to show TLE details & history
Last TLE update: 19 hours ago

TLE from 19 hours ago
0 STARLINK-32469
1 61721U 24196Q   25309.29139581 -.00000117  00000-0  81667-5 0  9999
2 61721  53.1605 318.9428 0001320  86.4753 273.6398 15.30187877 58113
Epoch: 2025-11-05T06:59Z
TLE epoch observation values (Epoch: 2025-11-05T06:59:36.597Z)
Latitude
-0.0001°
Longitude
169.27406°
Altitude
476.094 km
Speed
7.629 km/s
True Right ascension
21h 15m 46s
True Declination
0° 00' 00"
Sunlit
Object was in daylight at epoch
Visualization orbit readout
Latitude
Unknown
Longitude
Unknown
Altitude
Unknown
Speed
Unknown
Apparent Right ascension
Unknown
Apparent Declination
Unknown
Sunlit
N/A
Visualization observer readout
Local Sidereal Time
22:04:26
Azimuth
Unknown
Elevation
Unknown
Doppler factor
Unknown
Orbital elements
Apogee altitude
476.412 km
Perigee altitude
474.603 km
Semi-major axis
6,853.645 km
Eccentricity
0.00013
Inclination
53.1605°
RAAN
318.9428°
Arg. of periapsis
86.4753°
True anomaly
273.6247°
Mean anomaly
273.6398°
Eccentric anomaly
273.63225°
Mean motion
3.82526 °/min
Orbital period
94.11 mins
BSTAR
0.0000081667
Loading maneuver chart data...
Computing Atmospheric mass density...
Loading historical data...
Loading historical data...
Loading historical data...
Loading historical data...
Loading historical data...
Loading historical data...
Loading historical data...

Documentation

Showing up to 5 results
|